Tracking 19792 objects as of 16-Jul-2019
HD Live streaming from Space Station
objects crossing your sky now

SL-3 R/B

Track SL-3 R/B now!
10-day predictions


NORAD ID: 8800
Int'l Code: 1976-032B
Perigee: 798.0 km
Apogee: 934.2 km
Inclination: 81.2 °
Period: 102.1 minutes
Semi major axis: 7237 km
RCS: 7.6301 m2 (large)
Launch date: April 7, 1976
Source: Commonwealth of Independent States (former USSR) (CIS)
Launch site: PLESETSK MISSILE AND SPACE COMPLEX (PKMTR)

Note: This is a ROCKET BODY
aabbcc
Your satellite tracking list
Your tracking list is empty




NASA's NSSDC Master Catalog

Two Line Element Set (TLE):
1  8800U 76032B   19196.93932042 +.00000060 +00000-0 +25709-4 0  9995
2  8800 081.2491 199.1747 0094088 196.8044 163.0006 14.10128538224919
Source of the keplerian elements: AFSPC